Theta_e
314 313 313 312 312 313 313 314 314 315 314 315 314 314 313 316 316 316 317 317 317 317 317 318 318 318 317 324 326 330 330 330 327 327 327 329 330 330 328 328 329 329 329 328
314 313 314 314 315 315 314 314 314 313 314 315 314 314 314 314 315 316 316 316 317 317 317 317 318 318 317 318 326 329 329 328 323 325 328 330 330 330 329 329 328 328 325 328
313 315 314 313 315 315 314 314 313 313 314 314 314 313 313 314 316 316 316 316 317 317 317 318 318 318 317 316 317 324 327 327 325 325 328 331 332 332 331 331 329 326 329 329
314 314 314 313 314 314 314 313 312 313 314 312 315 313 314 313 314 315 318 318 318 318 318 318 318 317 316 316 314 319 324 325 325 324 326 328 329 329 328 327 327 326 328 325
314 313 313 313 314 313 314 314 314 315 314 314 314 313 313 312 313 313 314 317 318 320 319 318 317 316 315 315 314 313 318 322 322 323 322 324 325 325 325 324 325 326 325 325
314 313 314 314 313 313 313 314 315 315 314 314 313 312 312 313 315 315 316 319 320 320 319 316 316 315 314 314 313 313 313 316 318 319 319 319 321 320 320 319 317 317 318 318
314 313 313 313 313 313 315 314 315 318 315 315 313 313 313 319 317 318 318 318 317 317 315 315 315 315 314 313 312 312 312 313 314 315 316 316 317 316 315 313 311 311 314 314
314 314 313 311 313 313 313 314 315 316 318 315 314 315 317 318 319 319 319 319 317 316 315 314 315 314 314 313 312 312 311 311 312 312 312 312 313 312 311 310 310 312 312 313
313 313 313 312 313 313 314 315 314 315 309 314 315 316 316 317 317 317 318 318 316 315 314 314 314 313 313 313 313 312 311 311 310 310 310 310 310 310 310 310 310 312 311 314
315 316 314 312 313 313 314 314 316 316 317 316 314 314 316 318 316 314 315 317 316 315 315 314 314 314 314 313 312 311 312 311 310 310 309 309 309 309 309 309 310 310 313 312
314 316 314 313 313 314 314 314 316 316 316 316 315 314 317 317 316 316 316 318 317 316 315 313 313 313 313 314 314 313 313 313 312 311 310 309 309 309 309 309 309 310 310 311
314 317 315 315 313 312 313 314 316 317 317 315 316 317 314 313 312 313 314 314 314 313 312 312 313 313 313 314 314 314 314 314 313 312 312 310 309 308 308 308 308 308 309 309
313 313 319 317 316 313 314 315 315 316 315 315 316 317 311 311 311 313 312 312 311 311 311 311 312 313 313 314 314 314 313 313 313 312 311 311 310 309 308 307 307 307 308 308
311 308 314 320 317 315 315 316 316 316 318 317 318 318 316 316 315 313 314 313 312 311 310 311 311 312 313 314 314 314 314 313 313 312 311 311 311 309 308 307 307 307 307 307
310 312 311 312 309 309 311 310 312 314 315 318 317 317 316 314 314 315 315 314 314 312 312 312 312 313 314 314 313 314 313 313 313 312 311 311 310 308 307 307 307 306 306 305
310 311 311 311 311 310 311 311 312 313 313 315 316 315 314 314 315 315 315 316 314 314 316 316 315 314 312 311 312 312 312 312 311 310 310 309 309 307 306 306 306 306 306 306
308 310 311 313 311 311 311 311 312 313 313 314 316 315 314 313 314 316 316 316 316 315 315 315 314 313 313 312 312 311 311 311 311 310 310 309 308 307 306 305 305 305 305 305
307 309 307 310 308 309 308 310 311 312 313 312 312 304 304 305 307 312 311 311 312 312 313 313 313 312 312 311 311 310 310 309 309 309 309 307 307 306 305 304 304 304 304 304
306 305 306 306 305 305 306 307 311 312 308 304 305 304 304 304 309 311 307 306 304 307 309 309 309 309 309 309 309 308 308 308 308 308 307 305 305 304 303 303 303 303 303 302
303 303 303 304 305 305 306 305 307 308 309 302 303 304 304 304 303 305 305 305 303 303 304 305 307 308 308 308 308 308 308 307 306 305 304 303 303 303 302 302 302 302 301 301
304 305 307 305 302 303 303 304 307 307 306 303 302 302 303 300 303 304 303 303 305 305 304 305 306 306 306 305 306 307 306 306 306 305 302 301 300 300 300 299 300 300 300 300
304 305 305 305 306 304 303 303 307 303 303 302 301 303 304 303 303 302 301 302 304 306 304 304 305 305 305 305 305 305 305 304 303 302 301 301 300 298 298 297 298 298 297 297
297 302 302 303 303 301 302 300 300 299 298 299 301 300 299 299 300 301 301 301 305 305 303 302 304 304 303 303 304 304 304 305 305 302 299 298 296 296 295 295 296 295 296 295
297 300 297 298 300 301 299 298 297 297 298 299 299 297 297 298 299 300 301 304 304 303 303 302 302 302 301 300 301 302 302 300 301 304 302 298 296 294 294 294 294 294 294 295
297 298 295 296 298 298 298 298 297 297 296 296 296 297 297 299 300 301 302 302 302 301 302 302 301 300 301 303 301 298 299 298 299 301 303 301 298 298 295 295 295 294 293 292
296 295 296 294 296 296 296 296 297 296 296 295 295 296 296 298 298 298 298 298 298 299 298 297 296 297 297 297 296 297 298 298 296 297 298 299 297 295 294 293 293 292 291 290
Wind_Speed
13 4 6 10 11 9 8 5 8 2 6 5 8 10 10 20 21 23 26 27 29 27 24 24 26 24 31 31 32 37 40 39 40 43 41 38 37 34 32 31 31 30 29 27
3 8 9 9 2 2 8 5 7 8 6 2 6 12 14 16 18 28 31 30 31 26 22 22 29 29 26 31 35 37 39 39 40 40 40 40 39 38 36 35 34 34 32 28
10 3 15 9 3 1 5 6 5 7 4 6 5 8 12 12 19 30 33 36 34 30 22 20 27 32 25 27 33 37 37 37 38 37 38 39 39 39 39 38 37 35 33 31
8 13 3 4 8 7 6 4 9 6 2 4 4 6 5 10 9 10 23 25 23 19 20 22 19 25 25 26 27 32 34 35 36 38 37 37 39 40 40 38 36 35 34 35
4 6 8 9 5 7 4 3 2 3 3 6 4 5 6 12 8 10 18 23 20 18 12 14 18 16 20 23 26 29 33 35 36 37 37 35 36 36 36 35 35 34 33 34
2 2 2 3 4 6 8 5 4 1 2 6 7 7 4 8 7 7 14 7 14 15 15 16 15 18 20 21 23 26 30 32 35 37 36 37 33 32 34 34 34 35 36 35
5 8 4 3 6 5 5 6 2 2 2 9 8 7 9 3 6 3 3 9 9 10 9 10 12 13 15 18 20 24 26 28 33 35 36 36 33 32 32 30 29 29 32 34
11 7 12 8 10 9 10 8 5 7 5 5 2 7 5 3 3 7 15 8 10 10 11 12 10 11 12 14 15 18 20 22 29 31 30 32 32 33 31 28 27 27 26 26
6 10 6 8 6 12 6 9 6 5 2 2 5 7 9 6 9 11 9 9 15 13 12 11 11 10 10 12 13 15 15 17 22 25 23 27 28 31 30 28 27 26 27 27
3 6 1 3 2 8 6 3 3 3 4 5 7 6 9 5 9 12 8 18 15 14 16 15 11 9 8 7 7 9 9 12 16 19 20 22 23 25 26 27 26 26 26 25
9 3 3 4 7 10 5 4 5 5 5 5 5 6 1 5 6 6 6 8 14 17 14 13 12 13 9 5 3 2 4 5 9 12 16 20 22 22 23 23 24 26 25 23
7 0 9 4 3 4 4 11 12 5 4 5 3 13 3 7 7 13 12 10 4 5 9 13 15 11 9 6 3 3 5 7 9 11 14 17 21 23 25 25 25 26 24 24
2 2 4 5 3 3 3 4 10 12 2 6 5 10 4 11 9 9 7 7 3 4 9 14 13 10 7 3 2 5 8 10 13 16 18 19 22 24 24 24 24 24 24 25
5 3 2 2 1 3 1 4 5 2 6 16 16 13 4 9 8 3 3 3 3 6 11 13 11 8 8 8 7 11 13 15 17 20 21 23 25 24 23 23 23 23 22 23
5 4 4 4 4 2 2 3 4 2 3 5 6 17 7 11 9 8 13 7 5 3 9 16 15 12 11 15 17 16 18 21 22 24 25 26 27 27 25 25 23 22 22 22
5 3 5 3 8 8 6 11 10 10 10 10 14 25 18 28 23 22 23 26 19 17 20 23 30 31 29 26 25 24 27 27 27 26 28 28 28 28 29 27 24 23 23 24
5 4 4 0 1 8 8 14 15 9 11 11 9 14 11 7 8 16 22 18 17 20 18 21 21 19 21 23 22 25 28 28 31 32 32 31 29 29 29 27 26 25 23 21
4 3 1 2 1 4 4 3 9 17 10 5 6 9 9 9 16 15 14 16 18 18 20 20 23 24 25 27 28 31 32 32 32 33 34 33 30 28 28 28 27 25 23 21
5 3 1 2 3 6 11 4 7 8 3 2 4 6 10 18 10 1 18 19 20 20 19 20 22 24 25 26 27 26 26 27 29 30 31 31 30 29 28 28 27 25 24 22
3 1 3 3 4 5 4 3 3 4 3 5 3 2 3 10 3 3 19 20 20 20 21 22 22 21 24 24 23 23 23 23 25 25 26 27 28 27 26 25 25 24 22 19
4 4 13 9 4 7 4 4 3 4 4 5 2 5 3 3 4 16 21 22 23 21 21 21 19 18 18 19 20 19 18 19 18 19 20 22 23 23 21 22 23 23 22 21
8 8 6 6 7 10 10 4 6 3 6 3 9 12 13 15 17 21 26 25 23 22 22 21 22 20 18 17 17 19 15 13 14 15 16 16 16 18 19 21 22 22 21 21
2 6 5 8 6 5 10 8 6 3 8 9 10 12 18 22 23 25 28 26 21 19 21 20 22 25 23 20 16 15 17 14 13 11 11 12 13 15 16 19 20 20 20 21
3 3 3 4 3 7 5 5 11 7 5 7 10 22 24 28 28 28 23 22 21 23 24 24 26 28 22 19 19 19 17 17 12 13 13 12 13 14 14 15 17 18 20 20
5 7 5 4 4 8 11 1 6 11 14 18 23 22 27 25 24 21 22 24 25 26 25 26 27 27 27 25 23 21 18 15 15 12 14 12 13 14 14 15 16 17 18 17
8 4 4 4 3 4 15 20 19 21 27 35 32 33 28 22 20 17 19 21 20 18 18 18 20 20 20 21 20 18 18 15 13 14 13 12 12 14 14 16 17 17 17 16
Wind_Direction
199 201 201 223 216 239 284 343 310 13 149 181 228 259 259 269 271 267 260 256 256 255 254 252 242 244 224 226 220 220 225 229 225 225 229 228 230 230 233 234 236 238 244 239
120 229 235 234 286 283 282 243 274 298 114 166 266 266 273 261 249 249 251 256 258 262 255 248 243 233 233 224 222 223 230 233 233 228 230 230 233 232 234 237 237 239 241 238
212 157 214 238 201 203 254 243 251 258 313 208 262 271 241 268 245 247 256 259 259 255 256 246 238 228 227 234 230 228 229 231 236 235 230 231 232 234 235 236 237 240 233 226
233 242 148 218 230 177 248 247 232 244 339 258 133 285 284 295 255 227 245 254 255 255 247 239 235 229 230 239 233 229 229 230 234 240 235 233 235 235 237 239 239 239 233 237
209 196 173 208 199 174 205 25 86 169 234 303 210 263 243 220 262 248 246 247 254 231 197 210 227 232 234 244 240 230 229 228 232 237 242 238 236 238 240 240 238 238 237 234
207 342 245 186 64 173 131 92 72 58 199 262 162 204 225 227 231 234 228 227 188 194 211 215 220 223 234 232 232 230 227 227 231 234 238 242 238 237 239 239 241 242 241 241
182 198 176 156 88 24 157 143 184 267 184 241 161 215 240 182 294 331 328 167 185 211 214 213 219 226 229 232 231 231 230 227 231 235 236 239 240 238 243 244 246 244 239 242
201 221 161 187 193 169 195 180 175 199 191 260 37 238 250 212 295 254 271 195 195 211 216 218 226 242 242 239 237 235 229 226 235 241 242 240 238 241 243 245 247 243 243 239
198 230 130 172 168 154 185 219 222 328 86 18 224 265 283 212 240 247 246 185 196 197 207 228 249 251 246 244 241 238 233 232 238 249 246 244 239 240 243 246 244 241 242 237
282 277 69 79 140 268 171 171 125 221 197 221 256 253 235 310 260 233 215 220 207 215 220 236 226 200 190 190 209 221 228 233 238 252 254 248 243 242 244 242 242 242 238 243
218 234 28 108 210 180 168 209 211 176 197 179 263 252 86 102 38 22 314 261 214 203 226 218 186 163 159 147 162 227 256 273 264 263 258 255 254 250 247 246 244 242 242 241
14 214 222 189 45 14 267 205 204 184 215 217 169 250 41 77 53 28 50 49 63 229 213 190 171 163 158 160 176 225 244 253 255 263 265 261 252 248 247 245 245 243 241 244
110 216 208 288 318 342 236 205 229 241 74 215 169 257 311 91 70 61 32 26 338 192 201 190 183 184 171 172 263 287 278 273 266 258 256 259 257 252 249 247 247 246 240 239
124 171 240 288 21 335 151 344 345 315 233 238 240 265 238 332 10 70 26 354 310 240 224 212 223 217 225 243 265 298 300 291 280 269 260 263 263 258 250 248 247 245 245 243
152 188 189 202 177 129 149 211 273 270 231 242 310 272 306 320 318 315 324 287 260 266 249 254 261 261 270 270 266 264 281 279 280 274 264 264 265 259 250 245 244 244 244 247
178 198 174 248 197 188 215 228 241 217 221 241 254 267 271 272 277 273 277 296 273 260 282 296 294 288 281 287 291 278 285 279 270 271 271 266 265 261 254 249 243 240 240 241
148 167 173 264 310 186 253 231 198 205 203 199 217 244 271 284 281 293 289 295 295 303 302 305 307 308 307 303 300 284 288 285 278 274 271 264 261 258 253 251 246 242 241 242
141 131 124 191 47 239 217 31 201 208 227 261 279 42 33 349 325 355 22 5 347 327 305 293 287 290 292 292 293 294 292 289 280 274 267 261 258 257 252 247 245 243 241 242
165 156 186 192 195 293 310 215 171 171 191 7 76 28 6 356 346 167 5 349 343 330 321 312 308 307 304 298 297 296 292 288 280 272 266 261 259 254 249 247 246 244 242 242
163 136 156 162 190 233 239 307 76 92 249 209 87 99 5 14 42 290 341 348 344 341 326 312 309 308 311 308 302 299 296 289 283 277 271 265 258 253 250 248 247 245 243 242
153 193 213 219 251 283 209 185 158 144 221 195 317 330 261 179 255 313 327 326 320 323 332 331 323 316 316 317 313 307 306 302 293 282 272 264 260 255 248 242 239 239 237 232
165 168 193 189 204 256 161 105 171 144 160 340 323 323 319 310 298 308 311 311 311 306 317 321 322 316 311 312 316 313 305 302 300 294 282 270 259 251 242 234 233 232 233 233
212 185 176 184 209 132 119 113 94 16 315 302 303 321 319 308 297 294 292 295 293 287 299 304 304 309 313 309 307 305 305 303 305 299 292 276 261 248 238 231 230 231 232 234
262 157 179 78 196 156 134 320 312 316 325 337 317 315 309 301 297 292 290 289 289 296 297 296 299 298 295 294 302 300 297 295 294 306 299 275 261 247 239 240 237 235 236 238
191 148 167 259 266 316 306 353 349 315 323 319 314 301 303 301 296 297 292 294 294 294 293 296 298 293 290 289 292 288 282 274 269 266 272 266 258 259 254 248 245 247 248 249
182 168 166 226 298 320 300 301 300 299 305 306 301 296 296 288 294 308 312 312 306 300 300 305 308 305 299 295 294 286 276 265 264 259 249 246 248 249 245 245 242 240 240 239